Change the Weather History Date:

Friday, November 23, 2012

  Actual Average (KABI) Record (KABI)
Temperature  
Mean Temperature 55 °F 51 °F  
Max Temperature 64 °F 63 °F 85 °F (1965)
Min Temperature 46 °F 40 °F 19 °F (1970)
Degree Days  
Heating Degree Days 10 14  
Month to date heating degree days 222  
Since 1 July heating degree days 326  
Cooling Degree Days 0 0  
Month to date cooling degree days 15  
Year to date cooling degree days 2404  
Growing Degree Days 5 (Base 50)    
Moisture  
Dew Point 30 °F    
Average Humidity 42    
Maximum Humidity 94    
Minimum Humidity 15    
Precipitation  
Precipitation 0.00 in 0.03 in 1.10 in (1913)
Month to date precipitation 1.14  
Year to date precipitation 23.32  
Sea Level Pressure  
Sea Level Pressure 30.34 in    
Wind  
Wind Speed 9 mph (North)    
Max Wind Speed 21 mph    
Max Gust Speed 33 mph    
Visibility 10 miles    
Events      
T = Trace of Precipitation, MM = Missing Value Source: NWS Daily Summary

Daily Weather History Graph

Daily Weather History Graph

Search for Another Location

Airport or City:

Trip Planner

Search our weather history database for the weather conditions in past years. The results will help you decide how hot, cold, wet, or windy it might be!

Date:

Astronomy

Nov. 23, 2012 Rise Set
Actual Time 7:11 AM CST 5:32 PM CST
Civil Twilight 6:45 AM CST 5:59 PM CST
Nautical Twilight 6:15 AM CST 6:29 PM CST
Astronomical Twilight 5:46 AM CST 6:58 PM CST
Moon 2:36 PM CST (11/23) 2:46 AM CST (11/23)
Length of Visible Light 11h 13m
Length of Day
10h 21m
Waxing Gibbous, 80% of the Moon is Illuminated
Nov 23
Waxing Gibbous
Nov 28
Full
Dec 6
Last Quarter
Dec 13
New
Dec 19
First Quarter

Hourly Weather History & Observations

Time (CST) Temp. Windchill Dew Point Humidity Pressure Visibility Wind Dir Wind Speed Gust Speed Precip Events Conditions
12:15 AM 59.0 °F - 53.6 °F 82% 30.13 in 10.0 mi SSE 4.6 mph - N/A   Clear
12:35 AM 59.0 °F - 53.6 °F 82% 30.13 in 10.0 mi SE 4.6 mph - N/A   Clear
12:55 AM 57.2 °F - 53.6 °F 88% 30.13 in 10.0 mi Calm Calm - N/A   Clear
1:15 AM 55.4 °F - 53.6 °F 94% 30.13 in 10.0 mi Calm Calm - N/A   Clear
1:35 AM 53.6 °F - 50.0 °F 88% 30.15 in 10.0 mi NNW 11.5 mph - N/A   Clear
1:55 AM 55.4 °F - 51.8 °F 88% 30.16 in 10.0 mi NW 6.9 mph - N/A   Clear
2:15 AM 53.6 °F - 50.0 °F 88% 30.17 in 10.0 mi Calm Calm - N/A   Clear
2:35 AM 51.8 °F - 50.0 °F 94% 30.16 in 10.0 mi Calm Calm - N/A   Partly Cloudy
2:55 AM 50.0 °F - 48.2 °F 94% 30.16 in 10.0 mi Calm Calm - N/A   Partly Cloudy
3:15 AM 50.0 °F - 48.2 °F 94% 30.18 in 10.0 mi WNW 4.6 mph - N/A   Scattered Clouds
3:35 AM 55.4 °F - 51.8 °F 88% 30.18 in 10.0 mi WNW 11.5 mph - N/A   Scattered Clouds
3:55 AM 57.2 °F - 46.4 °F 67% 30.19 in 10.0 mi WNW 12.7 mph - N/A   Partly Cloudy
4:15 AM 55.4 °F - 44.6 °F 67% 30.20 in 10.0 mi NW 10.4 mph - N/A   Clear
4:55 AM 55.4 °F - 44.6 °F 67% 30.22 in 10.0 mi NNW 9.2 mph - N/A   Clear
5:15 AM 55.4 °F - 44.6 °F 67% 30.23 in 10.0 mi NNW 12.7 mph - N/A   Clear
5:35 AM 55.4 °F - 44.6 °F 67% 30.23 in 10.0 mi NNW 16.1 mph 21.9 mph N/A   Clear
5:55 AM 55.4 °F - 42.8 °F 63% 30.24 in 10.0 mi North 16.1 mph 24.2 mph N/A   Scattered Clouds
6:15 AM 57.2 °F - 44.6 °F 63% 30.26 in 10.0 mi North 15.0 mph 20.7 mph N/A   Overcast
6:55 AM 57.2 °F - 44.6 °F 63% 30.28 in 10.0 mi North 13.8 mph 24.2 mph N/A   Overcast
7:15 AM 57.2 °F - 42.8 °F 59% 30.30 in 10.0 mi North 13.8 mph 20.7 mph N/A   Overcast
7:35 AM 59.0 °F - 42.8 °F 55% 30.31 in 10.0 mi North 15.0 mph 23.0 mph N/A   Overcast
7:55 AM 59.0 °F - 41.0 °F 51% 30.33 in 10.0 mi North 12.7 mph 17.3 mph N/A   Overcast
8:15 AM 59.0 °F - 41.0 °F 51% 30.34 in 10.0 mi North 15.0 mph 28.8 mph N/A   Overcast
8:35 AM 59.0 °F - 39.2 °F 48% 30.35 in 10.0 mi NNE 15.0 mph 25.3 mph N/A   Overcast
8:55 AM 59.0 °F - 37.4 °F 45% 30.36 in 10.0 mi NNE 20.7 mph 24.2 mph N/A   Overcast
9:15 AM 59.0 °F - 35.6 °F 42% 30.38 in 10.0 mi NNE 16.1 mph 33.4 mph N/A   Overcast
9:35 AM 59.0 °F - 33.8 °F 39% 30.39 in 10.0 mi NNE 17.3 mph 26.5 mph N/A   Overcast
9:55 AM 59.0 °F - 30.2 °F 34% 30.40 in 10.0 mi NNE 20.7 mph 28.8 mph N/A   Overcast
10:15 AM 60.8 °F - 24.8 °F 25% 30.41 in 10.0 mi NE 11.5 mph 31.1 mph N/A   Scattered Clouds
10:35 AM 60.8 °F - 23.0 °F 23% 30.41 in 10.0 mi NNE 17.3 mph 31.1 mph N/A   Mostly Cloudy
10:55 AM 59.0 °F - 23.0 °F 25% 30.41 in 10.0 mi NNE 18.4 mph 26.5 mph N/A   Overcast
11:15 AM 59.0 °F - 26.6 °F 29% 30.41 in 10.0 mi NNE 17.3 mph 25.3 mph N/A   Overcast
11:35 AM 60.8 °F - 23.0 °F 23% 30.41 in 10.0 mi NE 15.0 mph 26.5 mph N/A   Overcast
11:55 AM 59.0 °F - 21.2 °F 23% 30.42 in 10.0 mi NNE 12.7 mph 20.7 mph N/A   Overcast
12:15 PM 59.0 °F - 19.4 °F 22% 30.41 in 10.0 mi NNE 15.0 mph 24.2 mph N/A   Overcast
12:35 PM 60.8 °F - 19.4 °F 20% 30.41 in 10.0 mi NE 10.4 mph 19.6 mph N/A   Overcast
12:55 PM 62.6 °F - 17.6 °F 18% 30.40 in 10.0 mi NE 13.8 mph 21.9 mph N/A   Overcast
1:15 PM 62.6 °F - 17.6 °F 18% 30.40 in 10.0 mi NNE 9.2 mph 19.6 mph N/A   Overcast
1:35 PM 62.6 °F - 17.6 °F 18% 30.39 in 10.0 mi NNE 12.7 mph 19.6 mph N/A   Overcast
1:55 PM 62.6 °F - 15.8 °F 16% 30.39 in 10.0 mi North 16.1 mph 21.9 mph N/A   Overcast
2:15 PM 64.4 °F - 17.6 °F 16% 30.38 in 10.0 mi North 13.8 mph 19.6 mph N/A   Mostly Cloudy
2:35 PM 64.4 °F - 17.6 °F 16% 30.38 in 10.0 mi NNE 12.7 mph 21.9 mph N/A   Scattered Clouds
2:55 PM 64.4 °F - 15.8 °F 15% 30.39 in 10.0 mi NNE 12.7 mph 20.7 mph N/A   Partly Cloudy
3:15 PM 64.4 °F - 15.8 °F 15% 30.39 in 10.0 mi NNE 9.2 mph 17.3 mph N/A   Partly Cloudy
3:35 PM 64.4 °F - 15.8 °F 15% 30.38 in 10.0 mi NNE 15.0 mph 23.0 mph N/A   Clear
3:55 PM 64.4 °F - 15.8 °F 15% 30.38 in 10.0 mi NNE 11.5 mph 21.9 mph N/A   Clear
4:15 PM 64.4 °F - 17.6 °F 16% 30.39 in 10.0 mi NE 9.2 mph 20.7 mph N/A   Clear
4:35 PM 62.6 °F - 19.4 °F 19% 30.39 in 10.0 mi North 9.2 mph - N/A   Clear
4:55 PM 62.6 °F - 19.4 °F 19% 30.39 in 10.0 mi NNE 11.5 mph 17.3 mph N/A   Clear
5:15 PM 60.8 °F - 19.4 °F 20% 30.40 in 10.0 mi North 10.4 mph 16.1 mph N/A   Clear
5:35 PM 59.0 °F - 19.4 °F 22% 30.40 in 10.0 mi North 6.9 mph - N/A   Clear
5:55 PM 57.2 °F - 19.4 °F 23% 30.40 in 10.0 mi North 8.1 mph - N/A   Clear
6:15 PM 57.2 °F - 17.6 °F 21% 30.41 in 10.0 mi North - - N/A   Mostly Cloudy
6:35 PM 55.4 °F - 17.6 °F 23% 30.42 in 10.0 mi North 4.6 mph - N/A   Overcast
6:55 PM 53.6 °F - 17.6 °F 24% 30.42 in 10.0 mi North 4.6 mph - N/A   Overcast
7:15 PM 53.6 °F - 17.6 °F 24% 30.43 in 10.0 mi North 4.6 mph - N/A   Overcast
7:35 PM 51.8 °F - 19.4 °F 28% 30.44 in 10.0 mi North 4.6 mph - N/A   Mostly Cloudy
7:55 PM 50.0 °F - 19.4 °F 30% 30.44 in 10.0 mi NNW 3.5 mph - N/A   Mostly Cloudy
8:15 PM 50.0 °F - 19.4 °F 30% 30.44 in 10.0 mi NNW 3.5 mph - N/A   Scattered Clouds
8:35 PM 50.0 °F - 19.4 °F 30% 30.44 in 10.0 mi North 5.8 mph - N/A   Partly Cloudy
8:55 PM 50.0 °F - 19.4 °F 30% 30.44 in 10.0 mi North 5.8 mph - N/A   Clear
9:15 PM 50.0 °F - 19.4 °F 30% 30.44 in 10.0 mi North 6.9 mph - N/A   Partly Cloudy
9:35 PM 48.2 °F - 19.4 °F 32% 30.45 in 10.0 mi NNE 5.8 mph - N/A   Partly Cloudy
9:55 PM 48.2 °F - 21.2 °F 34% 30.45 in 10.0 mi NNE 6.9 mph - N/A   Scattered Clouds
10:15 PM 48.2 °F - 21.2 °F 34% 30.45 in 10.0 mi NNE 4.6 mph - N/A   Mostly Cloudy
10:35 PM 48.2 °F - 21.2 °F 34% 30.45 in 10.0 mi North 4.6 mph - N/A   Mostly Cloudy
10:55 PM 48.2 °F - 21.2 °F 34% 30.45 in 10.0 mi North 4.6 mph - N/A   Scattered Clouds
11:15 PM 46.4 °F 43.5 °F 21.2 °F 37% 30.45 in 10.0 mi NNE 5.8 mph - N/A   Mostly Cloudy
11:35 PM 46.4 °F 42.9 °F 21.2 °F 37% 30.45 in 10.0 mi NE 6.9 mph - N/A   Mostly Cloudy
11:55 PM 46.4 °F 42.9 °F 23.0 °F 40% 30.44 in 10.0 mi NNE 6.9 mph - N/A   Mostly Cloudy